Regional Weather Roundup
Issued by NWS

Home | Current Version | Previous Version | Text Only | Print | Product List | Glossary Off
Versions: 1 2 3 4 5 6 7 8 9 10 11 12 13 14 15 16 17 18 19 20 21 22 23 24 25 26 27 28 29 30 31 32 33 34 35 36 37 38 39 40 41 42 43 44 45 46 47 48 49 50

000
ASUS43 KOAX 031010
RWRNE

WEATHER ROUNDUP FOR NEBRASKA
NATIONAL WEATHER SERVICE OMAHA NE
400 AM CST SAT DEC 03 2016

NOTES: SATELLITE DATA IS BEING USED TO AUGMENT CLOUD COVER ABOVE
       12000 FEET.
       "FAIR" INDICATES FEW OR NO CLOUDS BELOW 12,000 FEET WITH NO
       SIGNIFICANT WEATHER AND/OR OBSTRUCTIONS TO VISIBILITY.

  * THESE STATIONS DO NOT REPORT WEATHER SUCH AS RAIN...SNOW OR FOG.

NEZ001>004-019>022-054>056-031100-
NEBRASKA PANHANDLE

CITY           SKY/WX    TMP DP  RH WIND       PRES   REMARKS
SCOTTSBLUFF    CLOUDY    31  21  66 SW3       30.10F
ALLIANCE       CLOUDY    26  22  84 S9        30.08  WCI  17
CHADRON        CLOUDY    34  23  64 S14       30.04  WCI  25
KIMBALL        CLOUDY    24  21  90 SW5       30.08F WCI  18
SIDNEY         CLOUDY    25  20  81 SW9       30.11  WCI  15
$$

NEZ057>060-069>072-079>082-031100-
SOUTHWEST NEBRASKA

CITY           SKY/WX    TMP DP  RH WIND       PRES   REMARKS
NORTH PLATTE   CLOUDY    32  24  72 S6        30.20F WCI  26
IMPERIAL       CLOUDY    30  24  78 SW7       30.18  WCI  23
MCCOOK         CLOUDY    30  22  72 SW6       30.22  WCI  24
OGALLALA       CLOUDY    31  25  78 W3        30.17F
$$

NEZ005>010-023>029-035>040-094-031100-
NORTH CENTRAL NEBRASKA

CITY           SKY/WX    TMP DP  RH WIND       PRES   REMARKS
VALENTINE      CLOUDY    20  17  88 CALM      30.14
AINSWORTH      CLOUDY    29  26  87 S9        30.16F WCI  21
BROKEN BOW     CLOUDY    31  26  82 S8        30.22  WCI  23
O`NEILL        CLOUDY    26  24  93 S6        30.22F WCI  19
THEDFORD       CLOUDY    33  26  72 S12       30.17F WCI  25
$$

NEZ041-046>049-061>064-073>077-083>087-031100-
SOUTH CENTRAL NEBRASKA

CITY           SKY/WX    TMP DP  RH WIND       PRES   REMARKS
HEBRON         PTCLDY    24  22  92 CALM      30.29F
HOLDREGE       CLOUDY    27  24  87 S5        30.24F WCI  22
KEARNEY *      CLOUDY    28  21  74 SW5       30.26F WCI  23
$$

NEZ011>018-030>034-042>045-031100-
NORTHEAST NEBRASKA

CITY           SKY/WX    TMP DP  RH WIND       PRES   REMARKS
NORFOLK        CLEAR     20  18  92 E3        30.28
ALBION         PTCLDY    23  21  91 SE3       30.27F
FREMONT        CLEAR     21  20  97 CALM      30.31F
WAYNE          CLEAR     20  19  94 CALM      30.30F
$$

NEZ050>053-065>068-078-088>093-031100-
SOUTHEAST NEBRASKA

CITY           SKY/WX    TMP DP  RH WIND       PRES   REMARKS
LINCOLN        CLOUDY    22  20  92 N3        30.34
OMAHA EPPLEY   PTCLDY    26  21  81 CALM      30.34
FALLS CITY       N/A    N/A N/A N/A MISG      30.33F
PLATTSMOUTH    CLEAR     28  24  87 CALM      30.33F
$$

NEZ044-045-051>053-067-031100-
OMAHA AREA

CITY           SKY/WX    TMP DP  RH WIND       PRES   REMARKS
OMAHA EPPLEY   PTCLDY    26  21  81 CALM      30.34
FREMONT        CLEAR     21  20  97 CALM      30.31F
MILLARD        CLEAR     25  24  94 CALM      30.33F
OFFUTT AFB     MOCLDY    23  23 100 SW1       30.33F
PLATTSMOUTH    CLEAR     28  24  87 CALM      30.33F
WAHOO          FAIR      20  19  94 CALM      30.32F
$$



USA.gov is the U.S. government's official web portal to all federal, state and local government web resources and services.